Location: Newark
(40.7060°N, 73.9980°W)
Time: 05:20:16
(UTC+00:00)

N. Korean satellite - Pass Details

Date: 19 November 2019
Orbit: 456 x 506 km, 97.2° (Epoch: 05 December)

Event Time Altitude Azimuth Distance (km) Brightness Sun altitude
Rises 23:00:23 0° 207° (SSW) 2,551 10.8 -16.1°
Reaches altitude 10° 23:03:08 10° 231° (SW) 1,687 10.3 -16.6°
Maximum altitude 23:05:19 15° 268° (W) 1,407 10.0 -17.0°
Drops below altitude 10° 23:07:31 10° 305° (NW) 1,709 9.9 -17.4°
Sets 23:10:21 0° 329° (NNW) 2,607 10.5 -18.0°
